Temperature
21 21 20 19 19 18 17 16 16 15 14 14 13 13 13 13 12 12 12 12 12 11 11 11 11 10 10 10 10 10 10 10 9 9 9 9 9 9 10 10 9 9 9
21 21 21 20 19 18 18 17 16 16 15 15 15 14 14 13 13 12 12 12 12 11 11 11 11 11 10 10 10 10 10 10 9 9 9 9 9 9 9 9 9 9 9
22 21 21 20 19 19 18 17 16 16 16 15 14 13 12 12 12 12 12 12 12 11 11 11 11 11 10 10 10 10 10 10 9 9 9 9 9 9 9 9 9 9 9
22 21 21 20 20 19 19 18 17 16 16 15 14 14 13 13 14 14 13 12 12 11 11 11 11 11 10 10 10 10 10 10 10 9 9 9 9 9 9 9 9 9 9
21 21 21 21 20 19 19 18 17 16 16 15 15 14 14 14 14 13 13 12 12 11 11 11 11 11 11 10 10 10 10 10 9 9 9 9 9 9 8 8 9 9 9
21 21 21 21 20 19 19 18 17 16 16 15 15 14 14 14 13 13 13 12 12 12 11 11 11 11 11 10 10 10 10 10 9 9 9 9 9 9 9 8 8 8 8
21 21 21 20 20 19 19 18 17 16 16 15 15 15 14 14 14 14 14 13 12 12 12 11 11 11 11 11 10 10 10 10 9 9 9 9 9 9 9 8 8 8 8
21 20 20 20 20 19 19 18 17 17 16 15 15 15 14 14 14 13 13 13 13 13 13 12 12 11 11 11 10 10 10 9 9 9 9 9 9 9 8 8 8 7 7
20 20 20 20 19 19 19 18 18 17 16 16 15 15 14 14 13 13 13 13 13 13 12 12 12 11 11 10 10 10 10 10 9 9 9 9 9 9 8 8 8 7 7
19 19 19 19 19 19 18 18 17 17 16 16 15 15 14 14 14 13 12 12 12 12 12 12 12 11 11 10 10 10 10 9 9 9 9 9 9 8 8 8 8 7 7
19 19 19 19 19 18 18 18 17 17 16 16 15 14 14 14 13 13 12 12 12 12 12 12 12 11 11 10 10 10 10 9 9 9 9 8 8 8 8 8 7 7 6
18 18 18 18 18 18 18 17 17 16 16 16 15 14 14 13 13 12 12 12 12 12 12 12 11 11 11 10 10 10 10 9 9 9 9 8 8 8 8 7 7 6 6
17 17 17 17 17 17 17 17 17 16 16 15 15 14 14 13 13 12 12 12 12 12 11 11 11 11 10 10 10 10 9 9 9 9 8 8 8 8 7 7 6 6 6
17 16 16 16 16 16 16 16 16 16 16 15 15 14 14 13 13 12 12 12 12 11 11 11 11 11 10 10 10 9 9 9 8 8 8 8 7 7 7 6 6 6 5
15 16 15 15 15 15 15 15 16 16 15 15 15 14 14 13 13 12 12 12 12 11 11 11 11 10 10 10 9 9 9 8 8 8 8 7 7 7 7 6 6 5 5
15 15 15 15 15 15 15 15 15 15 15 15 14 14 13 13 13 12 12 12 12 11 11 11 10 10 10 9 9 9 9 8 8 8 7 7 7 6 6 6 5 5 4
14 14 14 14 14 14 14 14 14 15 14 14 14 14 13 13 13 12 12 12 12 11 11 10 10 9 9 9 9 8 8 8 8 7 7 7 6 6 6 5 5 4 4
13 13 13 14 14 14 14 14 14 14 14 14 14 13 13 13 13 12 12 12 11 11 10 10 9 9 9 9 8 8 8 7 7 7 7 6 6 5 5 5 4 4 3
13 13 13 14 14 14 14 14 13 13 13 13 14 13 13 13 12 12 12 11 11 10 10 9 9 9 8 8 8 8 7 7 7 6 6 6 5 5 4 4 4 3 3
12 13 13 13 13 13 13 13 13 13 13 13 13 13 13 13 12 12 12 11 10 10 9 9 8 8 8 7 7 7 7 6 6 6 5 5 5 4 4 3 3 2 2
12 12 12 12 13 13 13 13 13 13 13 13 13 12 12 12 12 12 11 10 10 9 9 8 8 7 7 7 7 6 6 6 6 5 5 5 4 4 3 3 2 2 1
11 11 11 11 11 12 12 12 12 12 12 12 12 12 12 12 11 11 11 10 9 9 8 8 7 7 7 7 6 6 6 5 5 5 4 4 3 3 2 2 1 1 0
10 10 10 10 11 11 11 11 12 12 12 12 11 12 11 11 11 10 10 9 9 8 8 7 7 7 7 6 6 6 5 5 4 4 3 3 3 2 2 1 1 0 -0
8 9 9 9 10 10 10 11 11 11 11 11 11 11 11 10 10 10 9 9 9 9 8 7 7 6 6 6 5 5 5 4 4 3 3 2 2 2 1 1 0 -0 -1
7 8 8 9 9 9 10 10 10 10 10 10 10 10 10 10 9 9 9 9 9 9 9 8 7 7 6 6 5 5 4 4 3 3 2 2 1 1 1 -0 -1 -1 -2
7 7 8 8 8 9 9 9 10 10 10 10 10 10 9 9 9 8 8 7 8 7 7 7 7 6 6 5 5 4 4 3 2 2 2 1 1 0 -0 -1 -1 -2 -2
Wind_Speed
15 15 16 16 15 16 17 18 18 16 14 12 12 11 10 9 8 7 11 14 14 15 11 7 7 6 6 6 6 4 4 2 2 1 1 3 3 3 3 3 3 4 5
14 16 16 16 17 17 18 18 19 18 16 13 12 10 9 8 7 7 9 13 14 15 12 9 7 7 6 7 7 5 4 3 3 3 1 1 2 3 4 3 3 4 5
15 15 16 17 16 17 19 18 19 18 18 14 11 9 8 7 7 9 9 10 13 14 13 11 8 7 7 7 7 6 6 5 4 4 4 3 3 2 2 4 4 4 4
14 14 16 17 18 17 17 17 18 18 18 17 15 15 13 12 11 10 9 9 12 13 14 13 11 9 7 8 7 7 5 6 4 3 3 3 3 2 2 3 3 4 5
14 14 15 16 16 16 16 17 17 17 17 18 17 17 13 11 8 9 11 11 10 12 13 13 11 9 8 9 9 8 7 6 5 4 3 3 2 3 3 3 3 3 4
14 13 13 14 13 14 15 16 16 16 17 18 18 18 16 14 12 12 13 12 9 10 12 12 11 10 9 9 9 9 9 7 7 5 4 4 3 4 4 4 4 4 4
15 14 13 14 15 16 17 17 17 16 17 18 18 18 17 16 15 14 13 12 10 10 13 12 11 10 9 9 8 8 8 8 7 7 5 5 5 4 4 4 4 3 3
14 14 14 14 15 17 18 18 19 17 18 19 18 17 16 13 12 13 11 12 11 11 12 13 12 11 10 10 9 8 8 7 8 8 7 5 5 4 4 4 3 3 3
14 13 13 14 15 16 18 19 19 17 17 18 18 16 16 15 13 12 11 10 9 10 12 13 12 11 11 11 10 8 8 8 8 7 7 5 5 4 4 4 4 4 4
11 12 12 13 14 15 15 16 17 17 15 17 17 15 15 15 13 12 12 11 11 11 12 13 13 12 11 10 10 8 8 8 8 6 7 6 4 4 4 4 4 4 5
10 10 10 10 12 13 14 15 16 15 15 16 15 14 14 14 13 12 12 11 11 12 13 13 12 12 11 11 10 10 9 9 8 7 7 7 6 5 4 4 4 4 4
7 8 9 9 10 11 13 14 14 15 15 15 14 14 13 13 13 12 12 11 11 11 11 11 11 11 11 10 11 10 10 10 9 8 8 7 6 6 5 4 5 4 4
7 6 7 8 9 10 10 11 13 13 13 13 14 14 14 13 13 12 11 11 11 10 10 11 11 11 10 10 10 9 9 9 9 8 8 7 7 6 4 5 4 4 3
7 7 7 7 8 9 9 10 10 11 12 13 13 14 14 14 13 12 11 11 10 10 10 10 10 10 9 9 9 8 8 7 7 7 7 7 7 7 6 5 4 3 3
6 7 7 7 7 8 8 9 9 10 10 12 12 13 12 12 11 11 11 10 10 10 10 9 9 9 8 8 9 8 8 7 6 6 5 6 6 6 5 4 4 3 3
4 5 6 7 8 9 9 9 9 9 10 11 11 11 11 12 12 11 11 10 10 10 9 9 9 9 7 10 12 9 7 7 7 6 5 4 5 5 6 6 5 5 4
3 5 6 7 8 9 10 10 10 9 10 10 11 11 12 12 12 11 11 11 11 10 9 9 9 8 9 12 13 11 7 6 6 6 6 4 4 5 4 4 4 4 5
2 3 4 4 5 7 8 8 9 10 10 10 11 11 12 12 11 12 12 11 9 10 9 9 9 8 9 13 13 12 7 6 5 6 6 6 5 4 4 3 2 2 3
3 3 3 3 3 6 9 10 10 10 10 11 11 12 12 12 12 12 11 9 9 9 8 9 9 8 8 12 13 12 6 5 5 5 5 5 5 5 5 3 3 2 2
2 0 2 2 3 5 8 10 10 11 11 11 11 11 12 13 13 12 11 9 9 9 8 8 8 8 8 11 13 12 6 6 5 4 4 5 5 5 5 3 3 3 3
4 2 1 3 3 5 7 9 10 11 10 9 9 10 11 11 11 10 9 10 10 9 9 8 7 7 8 11 13 12 6 6 6 5 4 3 5 5 4 3 3 3 1
4 2 0 1 3 5 7 8 9 8 9 10 10 10 10 10 10 11 10 10 11 10 9 8 7 5 6 8 10 11 8 7 6 5 4 4 6 5 4 2 1 1 1
4 2 1 1 3 5 7 8 7 8 10 11 10 10 10 9 10 12 12 11 10 9 9 8 7 6 5 6 10 11 9 8 5 4 6 6 6 4 3 1 1 1 1
4 2 2 3 4 4 5 6 7 9 11 11 11 10 11 10 9 8 9 10 10 10 9 8 8 7 6 6 6 6 6 7 6 5 6 6 5 3 2 1 1 1 1
4 3 4 5 5 5 5 6 8 10 11 11 11 11 10 10 9 7 6 7 7 10 10 9 9 10 8 8 10 8 6 6 6 6 4 3 2 2 1 1 1 1 1
5 4 5 5 5 5 5 7 8 10 12 11 11 10 9 9 9 9 7 8 7 10 10 10 9 6 9 13 13 11 10 10 10 6 4 3 3 2 2 1 0 0 0
Wind_Direction
196 190 185 181 178 176 176 176 177 180 176 178 179 181 184 181 179 178 180 180 180 178 176 174 176 171 173 177 175 170 175 183 156 126 280 273 233 208 202 185 179 186 195
199 191 185 182 181 180 179 178 180 181 181 183 182 182 178 179 179 178 185 186 184 182 183 178 179 177 177 181 184 173 169 184 168 157 165 283 303 271 217 197 204 203 196
203 193 187 185 183 183 182 183 182 182 182 177 172 171 169 173 181 188 192 191 190 187 184 184 181 182 180 186 189 180 174 182 194 182 168 182 229 264 258 224 212 211 210
207 197 190 186 185 185 182 181 181 181 181 177 178 179 184 189 193 188 188 188 192 190 188 187 187 186 184 185 189 186 182 173 190 205 208 200 184 171 268 277 241 224 222
208 200 192 187 183 179 178 180 180 181 180 180 183 185 191 192 183 181 185 191 194 195 193 191 191 189 188 187 188 188 188 186 185 187 189 219 237 213 197 253 265 261 244
206 201 192 181 179 175 174 177 179 182 181 183 186 189 191 187 183 186 189 192 194 196 196 193 192 191 190 191 193 192 190 192 192 193 185 179 186 206 204 229 246 253 253
199 197 191 184 181 177 177 179 180 184 183 185 190 193 193 191 191 189 189 188 191 196 199 195 194 194 192 191 191 192 194 192 193 196 198 198 205 196 194 212 241 254 262
195 195 192 185 182 179 179 180 183 186 185 188 193 193 193 194 195 192 189 191 193 195 192 193 194 194 191 191 191 194 194 192 195 198 195 202 211 207 201 199 213 259 268
196 195 192 186 181 179 181 183 184 186 188 189 191 193 193 194 194 190 187 189 188 186 186 189 191 193 192 192 188 193 192 190 195 198 200 205 209 206 207 202 193 203 247
194 193 190 185 181 180 178 180 184 187 186 188 190 194 194 194 192 188 190 186 184 182 184 189 190 191 192 190 188 188 190 190 195 194 200 206 207 205 205 207 208 205 216
194 189 186 180 174 171 173 178 182 184 186 188 188 188 190 189 189 190 189 185 182 182 183 185 187 189 191 189 189 192 189 194 195 191 197 204 197 201 205 204 211 217 214
185 177 171 163 160 165 171 177 180 183 185 185 183 185 184 183 187 189 186 182 181 181 180 179 182 187 188 188 190 191 189 191 193 194 195 204 197 201 201 204 214 220 215
165 158 157 159 161 163 168 175 181 181 178 177 179 179 181 182 185 184 181 179 178 176 175 175 180 184 186 186 189 189 189 192 194 193 196 200 192 205 206 205 212 220 230
160 160 162 163 164 166 169 171 175 174 170 171 174 178 181 182 180 178 177 178 175 173 172 174 176 178 179 182 183 182 183 186 188 190 192 192 193 203 200 204 213 219 231
159 165 168 167 166 167 169 169 169 167 166 169 173 177 175 171 170 171 172 172 171 170 167 167 170 172 174 178 175 177 177 179 182 183 184 185 187 193 193 198 205 206 221
178 177 172 171 173 174 172 168 168 166 164 169 173 169 166 166 167 168 166 164 165 165 164 168 169 170 171 166 166 168 172 173 176 178 178 179 181 190 200 210 211 207 212
199 194 188 182 180 178 172 171 167 161 164 168 168 166 165 166 165 162 162 166 167 163 164 167 166 167 165 160 163 166 166 169 176 176 173 172 181 181 193 210 220 227 236
222 207 193 187 178 168 162 159 157 160 163 166 167 166 165 164 160 160 165 165 161 163 165 165 164 161 161 160 162 162 163 162 170 172 169 173 180 182 178 179 207 236 244
240 207 195 184 166 162 157 153 158 161 164 170 171 169 165 162 161 164 164 158 155 157 158 160 160 160 159 160 160 156 160 160 164 162 162 168 173 178 174 176 204 242 276
335 189 145 139 149 159 153 157 166 167 173 174 171 166 163 163 164 163 156 149 149 150 149 151 157 157 156 158 159 158 161 162 160 154 156 162 167 170 169 177 188 221 255
336 354 135 156 169 158 156 166 171 178 174 163 161 160 160 161 158 151 147 146 144 144 147 145 144 149 151 157 161 163 165 166 163 164 167 171 167 165 169 174 188 226 239
335 340 324 173 164 161 163 175 183 174 157 153 154 155 155 152 150 147 147 148 148 148 148 143 139 139 145 149 159 161 157 152 158 166 163 157 155 157 166 180 228 342 47
299 285 238 199 177 173 174 183 180 158 151 151 153 152 148 147 149 151 152 152 154 155 155 155 155 151 143 148 151 156 152 143 142 141 141 142 146 149 160 158 128 90 89
285 269 238 207 202 195 192 185 166 155 154 155 154 150 149 147 147 150 155 158 162 161 159 161 161 153 148 150 153 156 149 138 132 128 131 131 134 133 134 126 136 126 142
274 250 224 218 212 198 191 174 162 156 157 156 153 150 150 148 146 142 148 156 164 167 164 168 165 164 169 170 160 157 158 154 146 134 122 123 135 141 138 115 104 85 68
270 251 232 222 211 192 185 174 167 162 159 158 156 154 152 149 145 137 115 95 120 132 138 143 146 150 151 149 151 149 145 143 143 133 144 157 162 169 168 156 109 46 57
Height
1437 1441 1446 1450 1455 1460 1464 1468 1472 1477 1482 1485 1489 1493 1497 1501 1505 1508 1511 1514 1517 1520 1522 1525 1527 1530 1532 1534 1536 1537 1539 1540 1541 1542 1542 1543 1543 1542 1542 1541 1541 1540 1540
1430 1434 1439 1444 1448 1453 1457 1462 1466 1470 1475 1478 1483 1487 1492 1496 1500 1504 1507 1510 1513 1516 1518 1521 1523 1526 1528 1531 1533 1534 1536 1538 1539 1540 1540 1540 1541 1540 1540 1539 1539 1538 1538
1422 1427 1432 1436 1441 1446 1450 1455 1459 1464 1469 1473 1479 1484 1489 1493 1496 1498 1502 1505 1508 1511 1514 1517 1520 1522 1525 1527 1529 1531 1533 1534 1536 1537 1539 1538 1537 1537 1537 1537 1537 1536 1535
1416 1420 1424 1429 1433 1438 1444 1449 1453 1458 1463 1468 1472 1476 1479 1482 1486 1491 1495 1500 1503 1506 1509 1512 1515 1518 1521 1523 1526 1528 1529 1531 1532 1534 1535 1536 1536 1535 1534 1534 1534 1533 1533
1408 1412 1416 1421 1426 1432 1437 1442 1447 1452 1457 1461 1465 1470 1473 1477 1482 1487 1490 1494 1498 1501 1504 1507 1510 1513 1516 1519 1521 1524 1525 1527 1528 1530 1531 1532 1532 1532 1532 1530 1530 1530 1530
1401 1405 1410 1415 1420 1425 1430 1435 1441 1445 1450 1455 1459 1463 1467 1472 1476 1480 1484 1488 1491 1495 1498 1502 1505 1508 1511 1514 1517 1519 1521 1523 1524 1526 1527 1528 1528 1528 1528 1527 1526 1525 1525
1393 1398 1403 1407 1412 1417 1422 1428 1433 1438 1443 1448 1453 1457 1462 1466 1470 1474 1478 1481 1485 1488 1491 1495 1499 1502 1505 1509 1512 1514 1516 1518 1520 1521 1522 1523 1524 1525 1525 1524 1522 1521 1520
1385 1390 1395 1400 1405 1410 1415 1420 1425 1431 1437 1441 1446 1451 1456 1461 1465 1469 1472 1476 1479 1482 1486 1490 1493 1497 1500 1504 1507 1509 1511 1514 1515 1517 1518 1519 1520 1520 1520 1520 1519 1517 1516
1379 1384 1389 1394 1398 1403 1407 1413 1418 1424 1430 1435 1440 1445 1450 1454 1459 1463 1467 1471 1474 1478 1481 1485 1488 1492 1495 1498 1501 1504 1506 1508 1510 1512 1513 1514 1515 1516 1516 1516 1515 1515 1511
1373 1377 1382 1387 1391 1396 1402 1407 1412 1417 1423 1428 1433 1438 1443 1448 1453 1458 1461 1465 1469 1473 1476 1480 1483 1487 1490 1493 1496 1498 1501 1503 1505 1507 1508 1509 1510 1511 1511 1511 1510 1510 1508
1367 1372 1377 1381 1386 1391 1396 1401 1406 1412 1417 1422 1428 1433 1438 1443 1448 1452 1456 1460 1464 1467 1471 1474 1478 1481 1484 1487 1490 1493 1495 1497 1499 1501 1503 1503 1504 1505 1505 1505 1505 1504 1503
1364 1368 1372 1376 1381 1385 1390 1395 1400 1405 1411 1416 1422 1427 1432 1437 1442 1446 1451 1455 1459 1463 1466 1469 1473 1476 1479 1482 1485 1487 1490 1492 1494 1496 1497 1498 1499 1499 1500 1500 1499 1499 1498
1361 1364 1368 1372 1376 1381 1385 1390 1395 1400 1406 1411 1417 1422 1427 1431 1436 1441 1446 1450 1454 1458 1461 1464 1467 1470 1474 1476 1479 1482 1484 1486 1488 1490 1491 1492 1493 1494 1494 1494 1494 1493 1492
1358 1361 1365 1369 1373 1377 1381 1385 1390 1395 1401 1406 1411 1416 1421 1426 1431 1436 1440 1445 1449 1452 1456 1459 1462 1465 1468 1471 1474 1477 1479 1481 1483 1485 1486 1487 1488 1488 1488 1488 1488 1488 1487
1357 1359 1362 1366 1370 1373 1377 1381 1386 1391 1396 1401 1406 1411 1416 1421 1426 1431 1435 1440 1444 1448 1451 1455 1457 1461 1463 1466 1469 1471 1474 1476 1478 1479 1481 1482 1482 1483 1483 1483 1483 1483 1482
1356 1358 1361 1364 1367 1370 1374 1378 1382 1386 1391 1396 1401 1406 1411 1417 1421 1426 1431 1435 1439 1443 1446 1449 1453 1455 1458 1461 1464 1466 1469 1471 1473 1474 1476 1477 1478 1478 1478 1479 1478 1478 1477
1356 1357 1359 1362 1364 1368 1371 1374 1379 1383 1387 1392 1397 1402 1407 1411 1416 1421 1426 1430 1434 1438 1441 1445 1448 1451 1453 1457 1459 1462 1464 1466 1468 1469 1471 1472 1473 1473 1474 1474 1474 1473 1472
1354 1355 1357 1360 1363 1366 1369 1372 1376 1380 1384 1388 1393 1397 1402 1407 1412 1417 1421 1425 1429 1433 1436 1440 1443 1446 1449 1452 1455 1457 1460 1462 1463 1465 1466 1467 1468 1468 1469 1469 1469 1468 1468
1352 1354 1355 1357 1360 1363 1366 1369 1373 1377 1380 1384 1388 1393 1397 1402 1407 1411 1416 1420 1424 1428 1432 1435 1439 1442 1445 1448 1451 1453 1455 1457 1459 1461 1462 1463 1464 1464 1465 1465 1464 1464 1463
1350 1351 1353 1354 1357 1360 1363 1366 1369 1373 1376 1380 1384 1389 1394 1398 1402 1407 1411 1416 1420 1424 1428 1431 1435 1438 1441 1443 1446 1449 1451 1453 1455 1456 1458 1459 1459 1460 1460 1460 1459 1459 1458
1348 1349 1350 1352 1354 1356 1360 1363 1366 1369 1373 1377 1381 1385 1390 1394 1399 1403 1407 1412 1416 1420 1424 1428 1431 1434 1437 1439 1442 1445 1446 1448 1450 1452 1453 1454 1455 1456 1456 1456 1456 1455 1454
1346 1347 1348 1349 1351 1353 1356 1359 1362 1366 1370 1374 1378 1382 1386 1391 1395 1399 1403 1408 1412 1416 1420 1423 1427 1430 1433 1436 1438 1440 1443 1445 1446 1448 1449 1450 1451 1452 1452 1452 1452 1451 1450
1343 1344 1345 1346 1348 1351 1353 1355 1358 1362 1366 1369 1373 1378 1382 1387 1391 1395 1399 1403 1408 1411 1415 1419 1422 1426 1429 1431 1434 1437 1439 1441 1443 1445 1446 1447 1448 1448 1448 1448 1448 1447 1446
1340 1341 1342 1343 1344 1347 1349 1352 1355 1358 1361 1365 1369 1374 1378 1383 1387 1392 1396 1399 1403 1406 1410 1414 1418 1421 1424 1427 1430 1433 1435 1437 1439 1441 1442 1444 1444 1445 1444 1444 1444 1443 1442
1337 1337 1338 1339 1340 1342 1345 1347 1350 1354 1357 1361 1365 1370 1374 1378 1383 1387 1392 1396 1400 1403 1407 1410 1414 1417 1420 1423 1426 1429 1431 1433 1436 1438 1439 1440 1440 1440 1440 1440 1440 1440 1439
1332 1332 1333 1334 1336 1338 1340 1343 1346 1349 1352 1356 1360 1365 1369 1374 1378 1382 1388 1393 1397 1401 1405 1409 1412 1414 1418 1421 1423 1426 1428 1430 1433 1434 1435 1435 1436 1436 1436 1436 1436 1436 1436